Content
SEND FEEDBACK

Daily
Averages
Monthly
Summary
United States of America

RAPID CITY, SOUTH DAKOTA


Home > North America > United States > South Dakota
Elevation: 3162 feet     Latitude: 44 03N     Longitude: 103 04W

WEATHER
 
SELECT A DAY
Number of Records: 200,552;   Date Range: 1/1/95 - 9/20/14
 
SHARE

PRINT THIS DATA

[ ← Previous Day ]
WEATHER ALMANAC - FEBRUARY 12, 2014
[ Next Day → ]
[ °C ]   °F
Weather ElementAverageHighLow
Temperature28.2 °F46.9 °F (10:52 pm)17.1 °F (5:52 am)
Dewpoint20.4 °F27 °F (3:52 pm)14 °F (6:52 am)
Humidity75.5 %96 % (4:52 am)41 % (10:52 pm)
Barometer29.88 in30.17 in (3:52 am)29.60 in (4:52 pm)
Wind Speed10.3 mph25.3 mph (11:52 am)
Wind Gust36.8 mph (10:52 pm)
Weather ElementAverage
Visibility7.6 mi
Wind DirectionS (174.8 °)

Weather ElementTotal
Precipitation---
Heating Degree Days33 (Base 65)
Averaged from 31 records on February 12, 2014
WEATHER CONDITIONS BREAKOUT
WIND DIRECTION BREAKOUT
WEATHER BY HOUR - FEBRUARY 12, 2014
[ °C ]   °F
Local TimeTemperatureDewpointHumidityBarometerVisibilityWind DirectionWind SpeedGust SpeedPrecipitationEventsConditions
1:52 AM24.1 °F19.0 °F81 %30.16 in10.0 miNorth (10°)10.4 mphClear
2:52 AM19.9 °F17.1 °F89 %30.16 in10.0 miNorth (10°)5.8 mphClear
3:52 AM19.0 °F15.1 °F85 %30.17 in10.0 miSSW (210°)4.6 mphClear
4:29 AM17.6 °F15.8 °F93 %30.04 in3.0 miSSW (210°)8.1 mphScattered Clouds
4:31 AM19.4 °F17.6 °F93 %30.04 in1.8 miSSW (210°)6.9 mphMostly Cloudy
4:34 AM19.4 °F17.6 °F93 %30.04 in0.8 miSW (230°)8.1 mphMist
4:48 AM19.4 °F17.6 °F93 %30.04 in0.2 miSSW (200°)6.9 mphFogLight Freezing Fog
4:52 AM19.9 °F19.0 °F96 %30.15 in0.2 miSouth (180°)4.6 mphFogLight Freezing Fog
5:31 AM17.6 °F15.8 °F93 %30.03 in1.0 miSouth (170°)3.5 mphMist
5:35 AM17.6 °F15.8 °F93 %30.03 in2.5 miSSE (160°)3.5 mphScattered Clouds
5:42 AM17.6 °F15.8 °F93 %30.02 in7.0 miSSE (160°)5.8 mphPartly Cloudy
5:52 AM17.1 °F15.1 °F92 %30.13 in2.5 miSE (130°)5.8 mphClear
6:02 AM17.6 °F15.8 °F93 %30.00 in8.0 miSE (140°)3.5 mphClear
6:52 AM17.1 °F14.0 °F88 %30.09 in9.0 miCalmClear
7:52 AM19.0 °F17.1 °F92 %30.06 in10.0 miCalmClear
8:52 AM21.9 °F18.0 °F85 %30.01 in10.0 miSE (130°)4.6 mphClear
9:52 AM26.1 °F21.0 °F81 %29.96 in10.0 miSE (140°)10.4 mphClear
10:52 AM35.1 °F23.0 °F61 %29.87 in10.0 miSouth (170°)16.1 mph21.9 mphClear
11:52 AM34.0 °F21.9 °F61 %29.80 in10.0 miSouth (190°)25.3 mph32.2 mphClear
12:52 PM34.0 °F23.0 °F64 %29.71 in10.0 miSouth (180°)20.7 mph29.9 mphClear
1:52 PM35.1 °F24.1 °F64 %29.64 in10.0 miSouth (180°)21.9 mph31.1 mphClear
2:52 PM37.9 °F26.1 °F62 %29.62 in10.0 miSouth (190°)19.6 mph26.5 mphClear
3:52 PM37.0 °F27.0 °F67 %29.61 in10.0 miSouth (170°)11.5 mphClear
4:52 PM35.1 °F27.0 °F72 %29.60 in10.0 miSouth (190°)10.4 mphClear
5:52 PM30.9 °F25.0 °F79 %29.62 in10.0 miESE (110°)3.5 mphClear
6:52 PM43.0 °F25.0 °F49 %29.60 in10.0 miWest (270°)11.5 mphClear
7:52 PM43.0 °F24.1 °F47 %29.60 in10.0 miWest (270°)10.4 mphClear
8:52 PM41.0 °F25.0 °F53 %29.62 in10.0 miWest (280°)11.5 mphClear
9:52 PM45.0 °F24.1 °F44 %29.62 in10.0 miWNW (290°)18.4 mph26.5 mphClear
10:52 PM46.9 °F24.1 °F41 %29.62 in10.0 miNW (310°)24.2 mph36.8 mphClear
11:52 PM46.0 °F25.0 °F44 %29.66 in10.0 miNNW (330°)21.9 mph29.9 mphClear
Hourly data recorded from KRAP, located miles away from Rapid City, South Dakota







STORIES FROM OUR PARTNERS